| time (UTC) | temp F | wind direction | speed MPH | gust MPH | rain 1hr in | rain 24hr in | rain mn in | humidity % | barometer mb |
| 20260902073824 | 72 | 85 | 2.0 | 9.0 | 0.00 | 0.19 | 0.00 | 92 | 1017.7 |
| 20260902073336 | 72 | 63 | 3.0 | 11.0 | 0.00 | 0.19 | 0.00 | 92 | 1017.7 |
| 20260902072827 | 71 | 112 | 2.0 | 9.0 | 0.00 | 0.19 | 0.00 | 92 | 1017.6 |
| 20260902072339 | 71 | 54 | 4.0 | 12.0 | 0.00 | 0.19 | 0.00 | 92 | 1017.6 |
| 20260902071830 | 71 | 60 | 5.0 | 14.0 | 0.00 | 0.19 | 0.00 | 92 | 1017.5 |
| 20260902071321 | 71 | 41 | 5.0 | 13.0 | 0.00 | 0.19 | 0.00 | 92 | 1017.4 |
| 20260902070816 | 71 | 53 | 6.0 | 13.0 | 0.00 | 0.19 | 0.00 | 92 | 1017.4 |
| 20260902070328 | 71 | 39 | 4.0 | 13.0 | 0.00 | 0.19 | 0.00 | 92 | 1017.4 |
| 20260902065819 | 71 | 55 | 7.0 | 13.0 | 0.00 | 0.19 | 0.00 | 92 | 1017.4 |
| 20260902065330 | 72 | 76 | 5.0 | 14.0 | 0.00 | 0.19 | 0.00 | 92 | 1017.5 |
| 20260902064821 | 72 | 64 | 7.0 | 14.0 | 0.00 | 0.19 | 0.00 | 92 | 1017.5 |
| 20260902064332 | 72 | 40 | 5.0 | 12.0 | 0.00 | 0.19 | 0.00 | 92 | 1017.6 |
| 20260902063824 | 72 | 67 | 4.0 | 13.0 | 0.00 | 0.19 | 0.00 | 92 | 1017.7 |
| 20260902063315 | 72 | 24 | 6.0 | 12.0 | 0.00 | 0.19 | 0.00 | 91 | 1017.7 |
| 20260902062826 | 72 | 68 | 4.0 | 11.0 | 0.00 | 0.19 | 0.00 | 92 | 1017.6 |
| 20260902062321 | 72 | 69 | 5.0 | 14.0 | 0.00 | 0.19 | 0.00 | 92 | 1017.6 |
| 20260902061833 | 72 | 74 | 4.0 | 13.0 | 0.00 | 0.19 | 0.00 | 92 | 1017.6 |
| 20260902061326 | 72 | 65 | 3.0 | 16.0 | 0.00 | 0.19 | 0.00 | 92 | 1017.6 |
| 20260902060838 | 72 | 41 | 8.0 | 14.0 | 0.00 | 0.19 | 0.00 | 92 | 1017.6 |
| 20260902060328 | 72 | 45 | 6.0 | 13.0 | 0.00 | 0.19 | 0.00 | 92 | 1017.6 |
| 20260902055819 | 72 | 5 | 6.0 | 14.0 | 0.00 | 0.19 | 0.00 | 92 | 1017.6 |
| 20260902055331 | 72 | 40 | 5.0 | 12.0 | 0.00 | 0.19 | 0.00 | 92 | 1017.7 |
| 20260902054825 | 72 | 84 | 5.0 | 11.0 | 0.00 | 0.19 | 0.00 | 92 | 1017.7 |
| 20260902054317 | 72 | 65 | 5.0 | 10.0 | 0.00 | 0.19 | 0.00 | 92 | 1017.7 |
| 20260902053832 | 72 | 15 | 4.0 | 10.0 | 0.00 | 0.19 | 0.00 | 92 | 1017.7 |
| 20260902053323 | 72 | 82 | 3.0 | 10.0 | 0.00 | 0.19 | 0.00 | 92 | 1017.5 |
| 20260902052819 | 72 | 65 | 4.0 | 10.0 | 0.00 | 0.19 | 0.00 | 92 | 1017.5 |
| 20260902052330 | 72 | 61 | 3.0 | 10.0 | 0.00 | 0.19 | 0.00 | 92 | 1017.6 |
| 20260902051841 | 72 | 15 | 5.0 | 10.0 | 0.00 | 0.19 | 0.00 | 92 | 1017.7 |
| 20260902051332 | 72 | 62 | 5.0 | 14.0 | 0.00 | 0.19 | 0.00 | 92 | 1017.6 |
| 20260902050824 | 72 | 17 | 5.0 | 13.0 | 0.00 | 0.19 | 0.00 | 92 | 1017.7 |
| 20260902050316 | 72 | 43 | 3.0 | 12.0 | 0.00 | 0.19 | 0.00 | 92 | 1017.6 |
| 20260902045827 | 72 | 80 | 6.0 | 12.0 | 0.00 | 0.19 | 0.00 | 92 | 1017.5 |
| 20260902045342 | 72 | 55 | 3.0 | 7.0 | 0.00 | 0.19 | 0.00 | 92 | 1017.5 |
| 20260902044831 | 72 | 121 | 3.0 | 13.0 | 0.00 | 0.19 | 0.00 | 92 | 1017.6 |
| 20260902044323 | 72 | 63 | 4.0 | 13.0 | 0.00 | 0.19 | 0.00 | 92 | 1017.8 |
| 20260902043818 | 72 | 44 | 4.0 | 9.0 | 0.00 | 0.19 | 0.00 | 92 | 1017.8 |
| 20260902043352 | 72 | 30 | 4.0 | 13.0 | 0.00 | 0.19 | 0.00 | 92 | 1017.7 |
| 20260902042823 | 72 | 338 | 4.0 | 17.0 | 0.00 | 0.19 | 0.00 | 92 | 1017.6 |
| 20260902041826 | 72 | 76 | 3.0 | 13.0 | 0.00 | 0.19 | 0.00 | 92 | 1017.5 |
| 20260902041322 | 72 | 51 | 4.0 | 13.0 | 0.00 | 0.19 | 0.00 | 92 | 1017.4 |
| 20260902040817 | 72 | 34 | 4.0 | 16.0 | 0.00 | 0.19 | 0.00 | 92 | 1017.1 |
| 20260902040328 | 72 | 93 | 8.0 | 16.0 | 0.00 | 0.19 | 0.00 | 92 | 1017.0 |
| 20260902035837 | 72 | 52 | 6.0 | 17.0 | 0.00 | 0.19 | 0.00 | 92 | 1017.1 |
| 20260902035349 | 72 | 86 | 7.0 | 17.0 | 0.00 | 0.19 | 0.00 | 92 | 1017.1 |
| 20260902034821 | 72 | 9 | 5.0 | 12.0 | 0.00 | 0.19 | 0.00 | 93 | 1017.1 |
| 20260902034333 | 72 | 53 | 6.0 | 17.0 | 0.00 | 0.19 | 0.00 | 92 | 1017.0 |
| 20260902033846 | 72 | 71 | 7.0 | 13.0 | 0.00 | 0.19 | 0.19 | 92 | 1016.9 |
| 20260902033317 | 72 | 65 | 6.0 | 17.0 | 0.00 | 0.19 | 0.19 | 92 | 1016.8 |
| 20260902032828 | 72 | 83 | 7.0 | 17.0 | 0.00 | 0.19 | 0.19 | 93 | 1016.8 |
| 20260902032319 | 72 | 52 | 5.0 | 18.0 | 0.00 | 0.19 | 0.19 | 93 | 1016.7 |
| 20260902031814 | 72 | 355 | 7.0 | 18.0 | 0.00 | 0.19 | 0.19 | 92 | 1016.6 |
| 20260902031327 | 72 | 80 | 5.0 | 13.0 | 0.00 | 0.19 | 0.19 | 92 | 1016.4 |
| 20260902030819 | 73 | 59 | 7.0 | 13.0 | 0.00 | 0.19 | 0.19 | 92 | 1016.4 |
| 20260902030329 | 73 | 59 | 5.0 | 11.0 | 0.00 | 0.19 | 0.19 | 92 | 1016.5 |
| 20260902025824 | 73 | 19 | 4.0 | 14.0 | 0.00 | 0.19 | 0.19 | 92 | 1016.5 |
| 20260902025319 | 73 | 11 | 6.0 | 14.0 | 0.00 | 0.19 | 0.19 | 92 | 1016.6 |
| 20260902024830 | 74 | 18 | 3.0 | 11.0 | 0.00 | 0.19 | 0.19 | 92 | 1016.7 |
| 20260902024322 | 74 | 47 | 5.0 | 14.0 | 0.00 | 0.19 | 0.19 | 92 | 1016.7 |
| 20260902023853 | 74 | 33 | 6.0 | 14.0 | 0.00 | 0.19 | 0.19 | 92 | 1016.7 |
| 20260902023328 | 75 | 360 | 5.0 | 11.0 | 0.00 | 0.19 | 0.19 | 92 | 1016.6 |
| 20260902022823 | 75 | 47 | 4.0 | 9.0 | 0.00 | 0.19 | 0.19 | 92 | 1016.4 |
| 20260902022316 | 75 | 24 | 3.0 | 9.0 | 0.00 | 0.19 | 0.19 | 92 | 1016.1 |
| 20260902021849 | 75 | 56 | 4.0 | 8.0 | 0.00 | 0.19 | 0.19 | 92 | 1016.0 |
| 20260902021318 | 75 | 38 | 4.0 | 8.0 | 0.00 | 0.19 | 0.19 | 92 | 1015.8 |
| 20260902020850 | 75 | 10 | 4.0 | 9.0 | 0.00 | 0.19 | 0.19 | 92 | 1015.7 |
| 20260902020341 | 75 | 23 | 5.0 | 10.0 | 0.00 | 0.19 | 0.19 | 92 | 1015.6 |
| 20260902015850 | 75 | 28 | 2.0 | 10.0 | 0.00 | 0.19 | 0.19 | 92 | 1015.4 |
| 20260902015321 | 75 | 87 | 3.0 | 9.0 | 0.00 | 0.19 | 0.19 | 92 | 1015.8 |
| 20260902014812 | 75 | 46 | 3.0 | 9.0 | 0.00 | 0.19 | 0.19 | 91 | 1015.9 |
| 20260902014326 | 74 | 5 | 3.0 | 6.0 | 0.01 | 0.19 | 0.19 | 91 | 1015.9 |
| 20260902013838 | 74 | 12 | 3.0 | 6.0 | 0.01 | 0.19 | 0.19 | 91 | 1015.6 |
| 20260902013347 | 74 | 340 | 2.0 | 4.0 | 0.11 | 0.19 | 0.19 | 90 | 1015.4 |
| 20260902012822 | 74 | 360 | 3.0 | 4.0 | 0.19 | 0.19 | 0.19 | 90 | 1015.2 |
| 20260902012354 | 74 | 274 | 0.0 | 3.0 | 0.19 | 0.19 | 0.19 | 89 | 1015.0 |
| 20260902011824 | 74 | 274 | 1.0 | 3.0 | 0.19 | 0.19 | 0.19 | 89 | 1014.8 |
| 20260902011336 | 74 | 261 | 1.0 | 3.0 | 0.19 | 0.19 | 0.19 | 89 | 1014.7 |
| 20260902010826 | 74 | 241 | 1.0 | 3.0 | 0.19 | 0.19 | 0.19 | 89 | 1014.9 |
| 20260902010321 | 74 | 277 | 1.0 | 2.0 | 0.19 | 0.19 | 0.19 | 88 | 1014.5 |
| 20260902005836 | 74 | 350 | 0.0 | 2.0 | 0.19 | 0.19 | 0.19 | 88 | 1014.5 |
| 20260902005326 | 74 | 262 | 1.0 | 4.0 | 0.19 | 0.19 | 0.19 | 88 | 1015.0 |
| 20260902004817 | 74 | 5 | 2.0 | 10.0 | 0.19 | 0.19 | 0.19 | 88 | 1015.1 |
| 20260902004329 | 74 | 55 | 5.0 | 10.0 | 0.18 | 0.18 | 0.18 | 88 | 1014.4 |
| 20260902003824 | 75 | 180 | 2.0 | 15.0 | 0.18 | 0.18 | 0.18 | 87 | 1013.5 |
| 20260902003316 | 76 | 81 | 6.0 | 19.0 | 0.04 | 0.04 | 0.06 | 88 | 1014.9 |
| 20260902002827 | 77 | 13 | 10.0 | 19.0 | 0.00 | 0.00 | 0.00 | 88 | 1015.4 |
| 20260902002319 | 76 | 360 | 9.0 | 14.0 | 0.00 | 0.00 | 0.00 | 87 | 1015.1 |
| 20260902001829 | 77 | 96 | 3.0 | 10.0 | 0.00 | 0.00 | 0.00 | 89 | 1013.7 |
| 20260902001321 | 77 | 147 | 3.0 | 10.0 | 0.00 | 0.00 | 0.00 | 90 | 1013.7 |
| 20260902000813 | 77 | 113 | 4.0 | 15.0 | 0.00 | 0.00 | 0.00 | 89 | 1014.3 |
| 20260902000327 | 78 | 49 | 7.0 | 15.0 | 0.00 | 0.00 | 0.00 | 89 | 1014.4 |
| 20260901235822 | 78 | 13 | 6.0 | 10.0 | 0.00 | 0.00 | 0.00 | 89 | 1014.6 |
| 20260901235314 | 78 | 58 | 4.0 | 12.0 | 0.00 | 0.00 | 0.00 | 88 | 1014.1 |
| 20260901234318 | 78 | 101 | 2.0 | 6.0 | 0.00 | 0.00 | 0.00 | 88 | 1013.9 |
| 20260901233828 | 78 | 44 | 2.0 | 6.0 | 0.00 | 0.00 | 0.00 | 88 | 1013.8 |
| 20260901233321 | 78 | 46 | 2.0 | 6.0 | 0.00 | 0.00 | 0.00 | 88 | 1014.1 |
| 20260901232832 | 78 | 53 | 2.0 | 6.0 | 0.00 | 0.00 | 0.00 | 88 | 1014.1 |
| 20260901232343 | 78 | 61 | 2.0 | 6.0 | 0.00 | 0.00 | 0.00 | 87 | 1013.9 |
| 20260901231852 | 78 | 51 | 2.0 | 6.0 | 0.00 | 0.00 | 0.00 | 87 | 1013.9 |
| 20260901231343 | 79 | 64 | 3.0 | 5.0 | 0.00 | 0.00 | 0.00 | 87 | 1013.8 |
| 20260901230821 | 79 | 74 | 2.0 | 8.0 | 0.00 | 0.00 | 0.00 | 86 | 1013.8 |
| 20260901230332 | 79 | 58 | 3.0 | 8.0 | 0.00 | 0.00 | 0.00 | 86 | 1013.8 |
| 20260901225823 | 79 | 28 | 4.0 | 8.0 | 0.00 | 0.00 | 0.00 | 86 | 1013.9 |
| 20260901225319 | 80 | 89 | 2.0 | 8.0 | 0.00 | 0.00 | 0.00 | 85 | 1013.8 |
| 20260901224830 | 80 | 5 | 4.0 | 8.0 | 0.00 | 0.00 | 0.00 | 85 | 1014.1 |
| 20260901224323 | 80 | 90 | 2.0 | 7.0 | 0.00 | 0.00 | 0.00 | 84 | 1013.9 |
| 20260901223834 | 81 | 355 | 3.0 | 7.0 | 0.00 | 0.00 | 0.00 | 83 | 1013.5 |
| 20260901223324 | 81 | 78 | 3.0 | 7.0 | 0.00 | 0.00 | 0.00 | 83 | 1013.3 |
| 20260901222823 | 81 | 59 | 2.0 | 6.0 | 0.00 | 0.00 | 0.00 | 82 | 1013.1 |
| 20260901222355 | 82 | 26 | 2.0 | 6.0 | 0.00 | 0.00 | 0.00 | 82 | 1013.2 |
| 20260901221826 | 82 | 53 | 4.0 | 7.0 | 0.00 | 0.00 | 0.00 | 81 | 1013.3 |
| 20260901221337 | 83 | 60 | 4.0 | 6.0 | 0.00 | 0.00 | 0.00 | 80 | 1013.4 |
| 20260901220828 | 83 | 27 | 3.0 | 6.0 | 0.00 | 0.00 | 0.00 | 78 | 1013.7 |
| 20260901220322 | 84 | 32 | 1.0 | 8.0 | 0.00 | 0.00 | 0.00 | 77 | 1013.7 |
| 20260901215834 | 85 | 344 | 4.0 | 8.0 | 0.00 | 0.00 | 0.00 | 76 | 1013.8 |
| 20260901215325 | 86 | 338 | 4.0 | 9.0 | 0.00 | 0.00 | 0.00 | 74 | 1013.8 |
| 20260901214316 | 88 | 60 | 2.0 | 5.0 | 0.00 | 0.00 | 0.00 | 71 | 1013.6 |
| 20260901213317 | 87 | 54 | 1.0 | 3.0 | 0.00 | 0.00 | 0.00 | 75 | 1013.5 |
| 20260901212828 | 87 | 66 | 1.0 | 2.0 | 0.00 | 0.00 | 0.00 | 76 | 1013.5 |
| 20260901212319 | 87 | 112 | 0.0 | 3.0 | 0.00 | 0.00 | 0.00 | 76 | 1013.5 |
| 20260901211831 | 86 | 112 | 1.0 | 3.0 | 0.00 | 0.00 | 0.00 | 77 | 1013.5 |
| 20260901211324 | 86 | 129 | 1.0 | 5.0 | 0.00 | 0.00 | 0.00 | 78 | 1013.4 |
| 20260901210835 | 85 | 115 | 3.0 | 5.0 | 0.00 | 0.00 | 0.00 | 78 | 1013.4 |
| 20260901210330 | 85 | 105 | 1.0 | 5.0 | 0.00 | 0.00 | 0.00 | 79 | 1013.5 |
| 20260901205841 | 85 | 105 | 1.0 | 5.0 | 0.00 | 0.00 | 0.00 | 79 | 1013.5 |
| 20260901205315 | 85 | 98 | 2.0 | 4.0 | 0.00 | 0.00 | 0.00 | 78 | 1013.6 |
| 20260901204833 | 86 | 74 | 1.0 | 3.0 | 0.00 | 0.00 | 0.00 | 77 | 1013.7 |
| 20260901204325 | 86 | 105 | 2.0 | 4.0 | 0.00 | 0.00 | 0.00 | 76 | 1013.5 |
| 20260901203815 | 86 | 120 | 1.0 | 3.0 | 0.00 | 0.00 | 0.00 | 75 | 1013.5 |
| 20260901203328 | 87 | 195 | 2.0 | 5.0 | 0.00 | 0.00 | 0.00 | 75 | 1013.5 |
| 20260901202818 | 87 | 164 | 2.0 | 5.0 | 0.00 | 0.00 | 0.00 | 75 | 1013.5 |
| 20260901202330 | 87 | 179 | 1.0 | 7.0 | 0.00 | 0.00 | 0.00 | 76 | 1013.4 |
| 20260901201824 | 87 | 148 | 3.0 | 7.0 | 0.00 | 0.00 | 0.00 | 76 | 1013.4 |
| 20260901201318 | 87 | 147 | 1.0 | 6.0 | 0.00 | 0.00 | 0.00 | 77 | 1013.4 |
| 20260901200325 | 86 | 153 | 2.0 | 5.0 | 0.00 | 0.00 | 0.00 | 76 | 1013.5 |
| 20260901195816 | 87 | 126 | 2.0 | 5.0 | 0.00 | 0.00 | 0.00 | 76 | 1013.5 |
| 20260901195327 | 87 | 130 | 3.0 | 6.0 | 0.00 | 0.00 | 0.00 | 76 | 1013.7 |
| 20260901194839 | 87 | 146 | 2.0 | 7.0 | 0.00 | 0.00 | 0.00 | 77 | 1013.6 |
| 20260901194330 | 87 | 137 | 3.0 | 7.0 | 0.00 | 0.00 | 0.00 | 76 | 1013.7 |
| 20260901193822 | 87 | 175 | 3.0 | 6.0 | 0.00 | 0.00 | 0.00 | 76 | 1013.8 |
| 20260901193333 | 87 | 205 | 2.0 | 4.0 | 0.00 | 0.00 | 0.00 | 76 | 1013.9 |
| 20260901192845 | 87 | 116 | 2.0 | 5.0 | 0.00 | 0.00 | 0.00 | 77 | 1013.9 |
| 20260901192318 | 86 | 139 | 3.0 | 7.0 | 0.00 | 0.00 | 0.00 | 77 | 1013.9 |
| 20260901191833 | 86 | 146 | 3.0 | 7.0 | 0.00 | 0.00 | 0.00 | 77 | 1013.9 |
| 20260901191324 | 86 | 153 | 2.0 | 6.0 | 0.00 | 0.00 | 0.00 | 78 | 1013.9 |
| 20260901190854 | 85 | 132 | 3.0 | 6.0 | 0.00 | 0.00 | 0.00 | 78 | 1013.9 |
| 20260901190325 | 85 | 177 | 1.0 | 5.0 | 0.00 | 0.00 | 0.00 | 79 | 1014.0 |
| 20260901185816 | 85 | 135 | 2.0 | 7.0 | 0.00 | 0.00 | 0.00 | 78 | 1014.1 |
| 20260901185328 | 85 | 98 | 3.0 | 8.0 | 0.00 | 0.00 | 0.00 | 77 | 1014.2 |
| 20260901184819 | 85 | 145 | 4.0 | 7.0 | 0.00 | 0.00 | 0.00 | 77 | 1014.2 |
| 20260901184332 | 85 | 136 | 4.0 | 8.0 | 0.00 | 0.00 | 0.00 | 76 | 1014.1 |
| 20260901183827 | 86 | 131 | 4.0 | 7.0 | 0.00 | 0.00 | 0.00 | 77 | 1014.2 |
| 20260901183322 | 85 | 121 | 4.0 | 7.0 | 0.00 | 0.00 | 0.00 | 78 | 1014.3 |
| 20260901182813 | 85 | 138 | 2.0 | 5.0 | 0.00 | 0.00 | 0.00 | 78 | 1014.4 |
| 20260901182328 | 85 | 119 | 2.0 | 8.0 | 0.00 | 0.00 | 0.00 | 80 | 1014.4 |
| 20260901181819 | 84 | 109 | 3.0 | 8.0 | 0.00 | 0.00 | 0.00 | 81 | 1014.4 |
| 20260901181330 | 83 | 103 | 3.0 | 5.0 | 0.00 | 0.00 | 0.00 | 82 | 1014.5 |
| 20260901180842 | 83 | 126 | 1.0 | 5.0 | 0.00 | 0.00 | 0.00 | 84 | 1014.5 |
| 20260901180332 | 82 | 189 | 1.0 | 5.0 | 0.00 | 0.00 | 0.00 | 84 | 1014.7 |
| 20260901175843 | 81 | 157 | 1.0 | 5.0 | 0.00 | 0.00 | 0.00 | 84 | 1014.7 |
| 20260901175318 | 81 | 138 | 1.0 | 3.0 | 0.00 | 0.00 | 0.00 | 85 | 1014.7 |
| 20260901174850 | 81 | 122 | 1.0 | 4.0 | 0.00 | 0.00 | 0.00 | 85 | 1014.9 |
| 20260901174320 | 81 | 118 | 2.0 | 5.0 | 0.00 | 0.00 | 0.00 | 85 | 1015.0 |
| 20260901173814 | 81 | 167 | 2.0 | 5.0 | 0.00 | 0.00 | 0.00 | 85 | 1015.1 |
| 20260901173325 | 81 | 132 | 2.0 | 4.0 | 0.00 | 0.00 | 0.00 | 85 | 1015.1 |
| 20260901172820 | 81 | 140 | 1.0 | 4.0 | 0.00 | 0.00 | 0.00 | 85 | 1015.1 |
| 20260901172332 | 81 | 69 | 1.0 | 6.0 | 0.00 | 0.00 | 0.00 | 84 | 1015.3 |
| 20260901171823 | 81 | 53 | 2.0 | 6.0 | 0.00 | 0.00 | 0.00 | 84 | 1015.2 |
| 20260901171314 | 81 | 58 | 2.0 | 4.0 | 0.00 | 0.00 | 0.00 | 84 | 1015.3 |
| 20260901170831 | 81 | 90 | 1.0 | 3.0 | 0.00 | 0.00 | 0.00 | 83 | 1015.4 |
| 20260901170322 | 81 | 82 | 1.0 | 5.0 | 0.00 | 0.00 | 0.00 | 82 | 1015.5 |
| 20260901165834 | 82 | 150 | 2.0 | 5.0 | 0.00 | 0.00 | 0.00 | 82 | 1015.6 |
| 20260901165347 | 82 | 129 | 2.0 | 5.0 | 0.00 | 0.00 | 0.00 | 82 | 1015.6 |
| 20260901164817 | 82 | 126 | 2.0 | 5.0 | 0.00 | 0.00 | 0.00 | 81 | 1015.6 |
| 20260901164329 | 82 | 147 | 3.0 | 5.0 | 0.00 | 0.00 | 0.00 | 82 | 1015.7 |
| 20260901163821 | 82 | 118 | 2.0 | 4.0 | 0.00 | 0.00 | 0.00 | 82 | 1015.6 |
| 20260901163312 | 82 | 74 | 2.0 | 5.0 | 0.00 | 0.00 | 0.00 | 82 | 1015.6 |
| 20260901162826 | 82 | 118 | 3.0 | 8.0 | 0.00 | 0.00 | 0.00 | 82 | 1015.7 |
| 20260901162344 | 82 | 167 | 4.0 | 8.0 | 0.00 | 0.00 | 0.00 | 81 | 1015.8 |
| 20260901161815 | 82 | 130 | 1.0 | 5.0 | 0.00 | 0.00 | 0.00 | 81 | 1015.9 |
| 20260901161326 | 82 | 119 | 3.0 | 7.0 | 0.00 | 0.00 | 0.00 | 80 | 1015.9 |
| 20260901160821 | 83 | 157 | 2.0 | 6.0 | 0.00 | 0.00 | 0.00 | 80 | 1015.9 |
| 20260901160316 | 83 | 108 | 3.0 | 6.0 | 0.00 | 0.00 | 0.00 | 79 | 1015.8 |
| 20260901155831 | 83 | 107 | 2.0 | 5.0 | 0.00 | 0.00 | 0.00 | 78 | 1015.9 |
| 20260901155321 | 84 | 98 | 3.0 | 6.0 | 0.00 | 0.00 | 0.00 | 76 | 1015.9 |
| 20260901154832 | 85 | 109 | 3.0 | 6.0 | 0.00 | 0.00 | 0.00 | 73 | 1015.9 |
| 20260901154328 | 86 | 292 | 1.0 | 4.0 | 0.00 | 0.00 | 0.00 | 73 | 1015.9 |
| 20260901153819 | 86 | 331 | 2.0 | 4.0 | 0.00 | 0.00 | 0.00 | 72 | 1015.9 |
| 20260901153330 | 86 | 313 | 1.0 | 5.0 | 0.00 | 0.00 | 0.00 | 72 | 1016.0 |
| 20260901152825 | 86 | 299 | 2.0 | 5.0 | 0.00 | 0.00 | 0.00 | 72 | 1016.2 |
| 20260901152316 | 86 | 360 | 1.0 | 5.0 | 0.00 | 0.00 | 0.00 | 72 | 1016.2 |
| 20260901151827 | 87 | 268 | 3.0 | 7.0 | 0.00 | 0.00 | 0.00 | 72 | 1016.2 |
| 20260901151339 | 87 | 300 | 3.0 | 8.0 | 0.00 | 0.00 | 0.00 | 72 | 1016.2 |
| 20260901150828 | 87 | 5 | 2.0 | 8.0 | 0.00 | 0.00 | 0.00 | 72 | 1016.2 |
| 20260901150340 | 86 | 350 | 1.0 | 8.0 | 0.00 | 0.00 | 0.00 | 73 | 1016.0 |
| 20260901145815 | 86 | 5 | 2.0 | 8.0 | 0.00 | 0.00 | 0.00 | 74 | 1016.0 |
| 20260901145326 | 85 | 274 | 3.0 | 6.0 | 0.00 | 0.00 | 0.00 | 75 | 1016.0 |
| 20260901144821 | 85 | 355 | 1.0 | 6.0 | 0.00 | 0.00 | 0.00 | 76 | 1015.9 |
| 20260901144333 | 85 | 5 | 3.0 | 6.0 | 0.00 | 0.00 | 0.00 | 77 | 1016.0 |
| 20260901143823 | 84 | 277 | 2.0 | 5.0 | 0.00 | 0.00 | 0.00 | 79 | 1015.9 |
| 20260901143315 | 83 | 317 | 3.0 | 7.0 | 0.00 | 0.00 | 0.00 | 80 | 1015.9 |
| 20260901142828 | 83 | 229 | 4.0 | 7.0 | 0.00 | 0.00 | 0.00 | 80 | 1015.9 |
| 20260901142319 | 82 | 345 | 2.0 | 7.0 | 0.00 | 0.00 | 0.00 | 82 | 1015.8 |
| 20260901141815 | 82 | 250 | 4.0 | 7.0 | 0.00 | 0.00 | 0.00 | 82 | 1015.7 |
| 20260901141346 | 81 | 278 | 2.0 | 5.0 | 0.00 | 0.00 | 0.00 | 84 | 1015.8 |
| 20260901140816 | 81 | 342 | 2.0 | 9.0 | 0.00 | 0.00 | 0.00 | 85 | 1015.8 |
| 20260901140327 | 80 | 238 | 4.0 | 9.0 | 0.00 | 0.00 | 0.00 | 87 | 1015.8 |
| 20260901135819 | 79 | 256 | 2.0 | 6.0 | 0.00 | 0.00 | 0.00 | 88 | 1015.8 |
| 20260901135330 | 79 | 246 | 4.0 | 6.0 | 0.00 | 0.00 | 0.00 | 88 | 1015.8 |
| 20260901134821 | 78 | 254 | 2.0 | 6.0 | 0.00 | 0.00 | 0.00 | 89 | 1015.8 |
| 20260901134316 | 78 | 270 | 1.0 | 7.0 | 0.00 | 0.00 | 0.00 | 89 | 1015.8 |
| 20260901133826 | 78 | 237 | 2.0 | 7.0 | 0.00 | 0.00 | 0.00 | 89 | 1015.8 |
| 20260901133321 | 78 | 263 | 4.0 | 7.0 | 0.00 | 0.00 | 0.00 | 90 | 1015.9 |
| 20260901132816 | 77 | 325 | 1.0 | 8.0 | 0.00 | 0.00 | 0.00 | 90 | 1015.9 |
| 20260901132328 | 77 | 254 | 4.0 | 8.0 | 0.00 | 0.00 | 0.00 | 91 | 1015.9 |
| 20260901131840 | 77 | 269 | 3.0 | 6.0 | 0.00 | 0.00 | 0.00 | 91 | 1016.0 |
| 20260901131351 | 76 | 261 | 3.0 | 7.0 | 0.00 | 0.00 | 0.00 | 91 | 1016.1 |
| 20260901130825 | 76 | 271 | 4.0 | 7.0 | 0.00 | 0.00 | 0.00 | 91 | 1016.2 |
| 20260901130316 | 76 | 248 | 2.0 | 6.0 | 0.00 | 0.00 | 0.00 | 92 | 1016.2 |
| 20260901125848 | 76 | 275 | 4.0 | 6.0 | 0.00 | 0.00 | 0.00 | 92 | 1016.2 |
| 20260901125318 | 75 | 291 | 1.0 | 6.0 | 0.00 | 0.00 | 0.00 | 92 | 1016.3 |
| 20260901124830 | 75 | 303 | 2.0 | 5.0 | 0.00 | 0.00 | 0.00 | 92 | 1016.3 |
| 20260901124324 | 75 | 277 | 2.0 | 4.0 | 0.00 | 0.00 | 0.00 | 92 | 1016.4 |
| 20260901123818 | 75 | 240 | 2.0 | 6.0 | 0.00 | 0.00 | 0.00 | 92 | 1016.3 |
| 20260901123330 | 75 | 267 | 3.0 | 6.0 | 0.00 | 0.00 | 0.00 | 92 | 1016.4 |
| 20260901122822 | 75 | 246 | 3.0 | 6.0 | 0.00 | 0.00 | 0.00 | 92 | 1016.4 |
| 20260901122333 | 75 | 267 | 4.0 | 7.0 | 0.00 | 0.00 | 0.00 | 92 | 1016.4 |
| 20260901121824 | 75 | 223 | 4.0 | 7.0 | 0.00 | 0.00 | 0.00 | 92 | 1016.4 |
| 20260901121316 | 74 | 281 | 2.0 | 6.0 | 0.00 | 0.00 | 0.00 | 93 | 1016.3 |
| 20260901120827 | 74 | 251 | 3.0 | 8.0 | 0.00 | 0.00 | 0.00 | 92 | 1016.4 |
| 20260901120322 | 74 | 240 | 4.0 | 8.0 | 0.00 | 0.00 | 0.00 | 92 | 1016.3 |
| 20260901115837 | 74 | 260 | 2.0 | 7.0 | 0.00 | 0.00 | 0.00 | 93 | 1016.4 |
| 20260901115326 | 74 | 262 | 2.0 | 8.0 | 0.00 | 0.00 | 0.00 | 93 | 1016.4 |
| 20260901114818 | 74 | 293 | 4.0 | 7.0 | 0.00 | 0.00 | 0.00 | 93 | 1016.5 |
| 20260901114333 | 74 | 268 | 3.0 | 6.0 | 0.00 | 0.00 | 0.00 | 93 | 1016.5 |
| 20260901113844 | 74 | 255 | 4.0 | 6.0 | 0.00 | 0.00 | 0.00 | 93 | 1016.5 |
| 20260901113314 | 74 | 267 | 2.0 | 5.0 | 0.00 | 0.00 | 0.00 | 93 | 1016.5 |
| 20260901112826 | 73 | 283 | 3.0 | 5.0 | 0.00 | 0.00 | 0.00 | 93 | 1016.6 |
| 20260901112337 | 73 | 255 | 2.0 | 4.0 | 0.00 | 0.00 | 0.00 | 93 | 1016.6 |
| 20260901111831 | 73 | 265 | 2.0 | 4.0 | 0.00 | 0.00 | 0.00 | 93 | 1016.5 |
| 20260901111322 | 73 | 243 | 2.0 | 4.0 | 0.00 | 0.00 | 0.00 | 92 | 1016.5 |
| 20260901110817 | 73 | 256 | 2.0 | 4.0 | 0.00 | 0.00 | 0.00 | 92 | 1016.4 |
| 20260901110328 | 73 | 240 | 2.0 | 4.0 | 0.00 | 0.00 | 0.00 | 92 | 1016.5 |
| 20260901105840 | 73 | 251 | 2.0 | 4.0 | 0.00 | 0.00 | 0.00 | 92 | 1016.5 |
| 20260901105331 | 73 | 285 | 2.0 | 4.0 | 0.00 | 0.00 | 0.00 | 92 | 1016.5 |
| 20260901104841 | 73 | 249 | 3.0 | 4.0 | 0.00 | 0.00 | 0.00 | 92 | 1016.5 |
| 20260901104315 | 73 | 250 | 2.0 | 4.0 | 0.00 | 0.00 | 0.00 | 92 | 1016.5 |
| 20260901103829 | 73 | 288 | 1.0 | 3.0 | 0.00 | 0.00 | 0.00 | 92 | 1016.5 |
| 20260901103321 | 73 | 278 | 2.0 | 4.0 | 0.00 | 0.00 | 0.00 | 92 | 1016.5 |
| 20260901102814 | 73 | 254 | 1.0 | 4.0 | 0.00 | 0.00 | 0.00 | 92 | 1016.4 |
| 20260901102330 | 73 | 281 | 2.0 | 4.0 | 0.00 | 0.00 | 0.00 | 92 | 1016.4 |
| 20260901101331 | 73 | 272 | 2.0 | 4.0 | 0.00 | 0.00 | 0.00 | 92 | 1016.2 |
| 20260901100822 | 73 | 225 | 2.0 | 4.0 | 0.00 | 0.00 | 0.00 | 92 | 1016.1 |
| 20260901100316 | 73 | 278 | 1.0 | 3.0 | 0.00 | 0.00 | 0.00 | 92 | 1016.0 |
| 20260901095831 | 73 | 252 | 1.0 | 3.0 | 0.00 | 0.00 | 0.00 | 92 | 1016.0 |
| 20260901095321 | 73 | 248 | 1.0 | 3.0 | 0.00 | 0.00 | 0.00 | 92 | 1015.9 |
| 20260901094833 | 73 | 254 | 1.0 | 5.0 | 0.00 | 0.00 | 0.00 | 92 | 1016.1 |
| 20260901094323 | 73 | 267 | 3.0 | 5.0 | 0.00 | 0.00 | 0.00 | 92 | 1016.2 |
| 20260901093819 | 73 | 268 | 2.0 | 4.0 | 0.00 | 0.01 | 0.00 | 92 | 1016.3 |
| 20260901093330 | 73 | 252 | 2.0 | 4.0 | 0.00 | 0.01 | 0.00 | 92 | 1016.3 |
| 20260901092842 | 73 | 280 | 2.0 | 6.0 | 0.00 | 0.01 | 0.00 | 92 | 1016.3 |
| 20260901092332 | 73 | 253 | 2.0 | 7.0 | 0.00 | 0.01 | 0.00 | 92 | 1016.4 |
| 20260901091822 | 73 | 258 | 5.0 | 7.0 | 0.00 | 0.01 | 0.00 | 92 | 1016.4 |
| 20260901091313 | 73 | 285 | 2.0 | 5.0 | 0.00 | 0.01 | 0.00 | 92 | 1016.5 |
| 20260901090828 | 73 | 277 | 2.0 | 5.0 | 0.00 | 0.01 | 0.00 | 91 | 1016.5 |
| 20260901090319 | 73 | 260 | 1.0 | 5.0 | 0.00 | 0.01 | 0.00 | 91 | 1016.5 |
| 20260901085815 | 73 | 262 | 2.0 | 6.0 | 0.00 | 0.01 | 0.00 | 91 | 1016.5 |
| 20260901085327 | 73 | 248 | 2.0 | 6.0 | 0.00 | 0.01 | 0.00 | 91 | 1016.5 |
| 20260901084818 | 73 | 199 | 1.0 | 5.0 | 0.00 | 0.01 | 0.00 | 91 | 1016.5 |
| 20260901084329 | 73 | 244 | 2.0 | 5.0 | 0.00 | 0.01 | 0.00 | 91 | 1016.5 |
| 20260901083821 | 73 | 218 | 2.0 | 4.0 | 0.00 | 0.01 | 0.00 | 91 | 1016.6 |
| 20260901083312 | 73 | 209 | 1.0 | 5.0 | 0.00 | 0.01 | 0.00 | 91 | 1016.6 |
| 20260901082827 | 73 | 244 | 2.0 | 5.0 | 0.00 | 0.01 | 0.00 | 91 | 1016.6 |
| 20260901082318 | 73 | 194 | 2.0 | 5.0 | 0.00 | 0.01 | 0.00 | 91 | 1016.5 |
| 20260901081830 | 73 | 215 | 1.0 | 4.0 | 0.00 | 0.01 | 0.00 | 91 | 1016.5 |
| 20260901081325 | 73 | 187 | 1.0 | 5.0 | 0.00 | 0.01 | 0.00 | 91 | 1016.5 |
| 20260901080816 | 73 | 188 | 2.0 | 5.0 | 0.00 | 0.01 | 0.00 | 91 | 1016.6 |
| 20260901080327 | 73 | 263 | 2.0 | 3.0 | 0.00 | 0.01 | 0.00 | 91 | 1016.6 |
| 20260901075818 | 73 | 222 | 2.0 | 4.0 | 0.00 | 0.01 | 0.00 | 91 | 1016.6 |
| 20260901075330 | 73 | 230 | 1.0 | 4.0 | 0.00 | 0.01 | 0.00 | 91 | 1016.5 |
| 20260901074821 | 74 | 194 | 2.0 | 5.0 | 0.00 | 0.01 | 0.00 | 91 | 1016.5 |
| 20260901074333 | 74 | 231 | 1.0 | 5.0 | 0.00 | 0.01 | 0.00 | 91 | 1016.5 |